Location: Table Mountain
(47.2500°N, 120.5778°W)
Time: 10:20:54
(UTC-07:00)

ISS - Pass Details

Date: 10 October 2017
Orbit: 400 x 408 km, 51.6° (Epoch: 24 October)

Event Time Altitude Azimuth Distance (km) Brightness Sun altitude
Rises 19:46:37 0° 294° (WNW) 2,323 1.5 -14.9°
Reaches altitude 10° 19:48:42 10° 295° (WNW) 1,463 0.2 -15.3°
Maximum altitude 19:51:58 89° 215° (SW) 410 -3.9 -15.8°
Enters shadow 19:53:03 40° 117° (ESE) 615 -3.4 -16.0°
